Regional Weather Roundup
Issued by NWS Glasgow, MT

Home | Current Version | Previous Version | Text Only | Print | Product List | Glossary On
Versions: 1 2 3 4 5 6 7 8 9 10 11 12 13 14 15 16 17 18 19 20 21 22 23 24 25 26 27 28 29 30 31 32 33 34 35 36 37 38 39 40 41 42 43 44 45 46 47 48 49 50
000
ASUS45 KGGW 211215
RWRGGW
HOURLY REGIONAL WEATHER ROUNDUP FOR NORTHEAST MONTANA
NATIONAL WEATHER SERVICE GLASGOW MONTANA
600 AM MDT FRI JUL 21 2017

NOTE: "FAIR" INDICATES FEW OR NO CLOUDS BELOW 12,000 FEET WITH NO
SIGNIFICANT WEATHER AND/OR OBSTRUCTIONS TO VISISBILITY.

NORTHEAST MONTANA


CITY           SKY/WX    TMP DP  RH WIND       PRES   REMARKS
GLASGOW        CLOUDY    66  54  65 SE10      29.83S
6HR MIN TEMP:  65; 6HR MAX TEMP:  73;

PLENTYWOOD       N/A     65  53  65 SE21G35     N/A
WOLF POINT     CLOUDY    68  57  68 NE12      29.80F
JORDAN           N/A     61  54  77 NW7       29.87R
WINNETT          N/A     72  33  24 W18G29      N/A
SIDNEY         CLEAR     64  59  83 N6        29.81R
GLENDIVE       CLEAR     67  59  75 NE10      29.82R
MALTA            N/A     64  48  56 W2          N/A
SCOBEY           N/A     65  45  48 CALM      29.85R

FORT PECK REPORTS


CITY           SKY/WX    TMP DP  RH WIND       PRES   REMARKS
FORT PECK        N/A     66  56  70 NE17G25     N/A
THE PINES        N/A     69  56  62 SE9G20      N/A

SOUTHEAST MONTANA


CITY           SKY/WX    TMP DP  RH WIND       PRES   REMARKS
BILLINGS       PTCLDY    69  29  22 W8        29.99R
MILES CITY     MOCLDY    71  49  45 NW7       29.81R
BAKER          PTCLDY    66  60  81 S9        29.84F
LIVINGSTON     CLEAR     64  31  28 W10       30.09R

CENTRAL MONTANA


CITY           SKY/WX    TMP DP  RH WIND       PRES   REMARKS
HAVRE          MOCLDY    59  38  45 SW10      29.93R
LEWISTOWN      CLOUDY    58  33  39 W7        30.03R
GREAT FALLS    MOCLDY    60  26  27 CALM      30.03R
CUT BANK       PTCLDY    52  33  48 W5        30.01R
HELENA         CLEAR     65  36  34 SW8       30.09R
BUTTE          CLEAR     48  37  65 CALM      30.18R
BOZEMAN        NOT AVBL

WESTERN MONTANA


CITY           SKY/WX    TMP DP  RH WIND       PRES   REMARKS
MISSOULA       CLEAR     51  35  54 NW5       30.11R
KALISPELL      NOT AVBL

NORTH DAKOTA


CITY           SKY/WX    TMP DP  RH WIND       PRES   REMARKS
WILLISTON      CLOUDY    66  59  78 NE10      29.81R
DICKINSON      PTCLDY    68  62  81 W9        29.82R
MINOT          MOCLDY    64  60  87 NW6       29.81S
BISMARCK       MOCLDY    67  64  90 NE5       29.79F

SOUTHERN SASKATCHEWAN


CITY           SKY/WX    TMP DP  RH WIND       PRES   REMARKS
REGINA         MOCLDY    64  59  82 E9G17     29.81R
MOOSE JAW      MOCLDY    57  55  94 NW9       29.82R FOG
ESTEVAN        MOCLDY    61  59  94 SE6       29.78R
SWIFT CURRENT  CLEAR     55  52  88 S7        29.82S




USA.gov is the U.S. government's official web portal to all federal, state and local government web resources and services.